When you browse on this site, cookies collect data to enhance your experience and personalize the content and advertising you see.
Visit our Privacy Policy to learn more. By continuing to use the site, you agree to this use of cookies and data.
  • In Spain
  • List of Countries
  • For 7 days
  • Water Temperature
  • Weather Map
  • Weather Widgets
  • user-avatar
    Login

    Hourly Weather Plzen

    Today, 4 June, Thursday

    Time Temperature Precipitation Wind Pressure Humidity
    00:00 +11°C° 0 mm 0 mps 722 mmHg 90%
    01:00 +11°C° 0 mm 0 mps 722 mmHg 90%
    02:00 +11°C° 0 mm 0 mps 721 mmHg 91%
    03:00 +11°C° 0 mm 0 mps 721 mmHg 91%
    04:00 +11°C° 0 mm 0 mps 721 mmHg 91%
    05:00 +12°C° 0 mm 0 mps 721 mmHg 89%
    06:00 +14°C° 0 mm 1 mps 720 mmHg 86%
    07:00 +15°C° 0 mm 1 mps 720 mmHg 84%
    08:00 +16°C° 0.4 mm 1 mps 720 mmHg 86%
    09:00 +16°C° 0.4 mm 2 mps 720 mmHg 88%
    10:00 +16°C° 0.4 mm 2 mps 720 mmHg 90%
    11:00 +17°C° 0.2 mm 3 mps 719 mmHg 86%
    12:00 +18°C° 0.2 mm 3 mps 719 mmHg 83%
    13:00 +19°C° 0.2 mm 3 mps 719 mmHg 79%
    14:00 +19°C° 0.3 mm 4 mps 718 mmHg 77%
    15:00 +20°C° 0.3 mm 4 mps 718 mmHg 75%
    16:00 +21°C° 0.3 mm 4 mps 717 mmHg 74%
    17:00 +20°C° 0.5 mm 3 mps 717 mmHg 79%
    18:00 +18°C° 0.5 mm 3 mps 717 mmHg 84%
    19:00 +17°C° 0.5 mm 3 mps 716 mmHg 90%
    20:00 +16°C° 0.7 mm 3 mps 717 mmHg 91%
    21:00 +15°C° 0.7 mm 4 mps 717 mmHg 93%
    22:00 +14°C° 0.7 mm 5 mps 717 mmHg 95%
    23:00 +13°C° 0.4 mm 4 mps 718 mmHg 95%

    Tomorrow, 5 June, Friday

    Time Temperature Precipitation Wind Pressure Humidity
    00:00 +13°C° 0.4 mm 4 mps 718 mmHg 95%
    01:00 +13°C° 0.4 mm 3 mps 718 mmHg 95%
    02:00 +13°C° 0.2 mm 3 mps 718 mmHg 95%
    03:00 +12°C° 0.2 mm 3 mps 718 mmHg 96%
    04:00 +13°C° 0.2 mm 2 mps 719 mmHg 96%
    05:00 +13°C° 0.3 mm 2 mps 719 mmHg 95%
    06:00 +12°C° 0.3 mm 2 mps 719 mmHg 94%
    07:00 +12°C° 0.3 mm 2 mps 720 mmHg 94%
    08:00 +12°C° 0.3 mm 2 mps 720 mmHg 91%
    09:00 +13°C° 0.3 mm 2 mps 720 mmHg 89%
    10:00 +13°C° 0.3 mm 2 mps 721 mmHg 87%
    11:00 +14°C° 0.1 mm 2 mps 721 mmHg 83%
    12:00 +15°C° 0.1 mm 2 mps 721 mmHg 78%
    13:00 +16°C° 0.1 mm 3 mps 721 mmHg 74%
    14:00 +15°C° 0.3 mm 4 mps 721 mmHg 71%
    15:00 +17°C° 0.3 mm 4 mps 721 mmHg 67%
    16:00 +16°C° 0.3 mm 5 mps 721 mmHg 64%
    17:00 +16°C° 0.1 mm 5 mps 721 mmHg 68%
    18:00 +15°C° 0.1 mm 5 mps 721 mmHg 72%
    19:00 +14°C° 0.1 mm 5 mps 721 mmHg 76%
    20:00 +13°C° 0.2 mm 5 mps 721 mmHg 81%
    21:00 +12°C° 0.2 mm 5 mps 722 mmHg 85%
    22:00 +10°C° 0.2 mm 5 mps 722 mmHg 90%
    23:00 +11°C° 0.2 mm 4 mps 722 mmHg 91%

    Day after tomorrow, 6 June, Saturday

    Time Temperature Precipitation Wind Pressure Humidity
    00:00 +11°C° 0.2 mm 4 mps 722 mmHg 91%
    01:00 +10°C° 0.2 mm 4 mps 722 mmHg 92%
    02:00 +11°C° 0.3 mm 4 mps 722 mmHg 93%
    03:00 +11°C° 0.3 mm 4 mps 722 mmHg 93%
    04:00 +11°C° 0.3 mm 4 mps 722 mmHg 94%
    05:00 +10°C° 0.7 mm 4 mps 723 mmHg 93%
    06:00 +10°C° 0.7 mm 4 mps 723 mmHg 92%
    07:00 +10°C° 0.7 mm 4 mps 724 mmHg 91%
    08:00 +10°C° 0.1 mm 4 mps 724 mmHg 88%
    09:00 +10°C° 0.1 mm 5 mps 725 mmHg 85%
    10:00 +12°C° 0.1 mm 5 mps 726 mmHg 82%
    11:00 +12°C° 0 mm 5 mps 726 mmHg 79%
    12:00 +13°C° 0 mm 4 mps 726 mmHg 76%
    13:00 +13°C° 0 mm 4 mps 726 mmHg 73%
    14:00 +14°C° 0 mm 4 mps 726 mmHg 72%
    15:00 +14°C° 0 mm 3 mps 726 mmHg 72%
    16:00 +16°C° 0 mm 3 mps 726 mmHg 71%
    17:00 +14°C° 0 mm 3 mps 726 mmHg 76%
    18:00 +15°C° 0 mm 2 mps 726 mmHg 80%
    19:00 +14°C° 0 mm 2 mps 726 mmHg 85%
    20:00 +14°C° 0.1 mm 2 mps 726 mmHg 87%
    21:00 +13°C° 0.1 mm 2 mps 727 mmHg 90%
    22:00 +13°C° 0.1 mm 1 mps 727 mmHg 92%
    23:00 +13°C° 0.1 mm 1 mps 727 mmHg 93%

    7 June, Sunday

    Time Temperature Precipitation Wind Pressure Humidity
    00:00 +13°C° 0.1 mm 1 mps 727 mmHg 93%
    01:00 +13°C° 0.1 mm 1 mps 727 mmHg 94%
    02:00 +13°C° 0.2 mm 1 mps 727 mmHg 95%
    03:00 +13°C° 0.2 mm 2 mps 727 mmHg 95%
    04:00 +13°C° 0.2 mm 2 mps 727 mmHg 96%
    05:00 +14°C° 0 mm 2 mps 728 mmHg 93%
    06:00 +15°C° 0 mm 2 mps 728 mmHg 90%
    07:00 +15°C° 0 mm 2 mps 728 mmHg 87%
    08:00 +16°C° 0 mm 2 mps 728 mmHg 79%
    09:00 +17°C° 0 mm 2 mps 729 mmHg 71%
    10:00 +19°C° 0 mm 2 mps 729 mmHg 64%
    11:00 +18°C° 0.1 mm 3 mps 729 mmHg 65%
    12:00 +18°C° 0.1 mm 3 mps 729 mmHg 66%
    13:00 +17°C° 0.1 mm 4 mps 728 mmHg 67%
    14:00 +16°C° 0.6 mm 3 mps 729 mmHg 75%
    15:00 +13°C° 0.6 mm 3 mps 729 mmHg 82%
    16:00 +11°C° 0.6 mm 3 mps 729 mmHg 90%
    17:00 +11°C° 0.5 mm 3 mps 729 mmHg 91%
    18:00 +12°C° 0.5 mm 2 mps 729 mmHg 93%
    19:00 +12°C° 0.5 mm 2 mps 730 mmHg 94%
    20:00 +12°C° 0.1 mm 2 mps 730 mmHg 94%
    21:00 +10°C° 0.1 mm 2 mps 730 mmHg 94%
    22:00 +10°C° 0.1 mm 2 mps 731 mmHg 94%
    23:00 +10°C° 0.1 mm 2 mps 731 mmHg 94%

    8 June, Monday

    Time Temperature Precipitation Wind Pressure Humidity
    00:00 +10°C° 0.1 mm 2 mps 731 mmHg 94%
    01:00 +9°C° 0.1 mm 2 mps 730 mmHg 94%
    02:00 +9°C° 0.3 mm 2 mps 730 mmHg 94%
    03:00 +9°C° 0.3 mm 2 mps 730 mmHg 94%
    04:00 +10°C° 0.3 mm 1 mps 730 mmHg 94%
    05:00 +10°C° 0 mm 2 mps 731 mmHg 91%
    06:00 +10°C° 0 mm 2 mps 731 mmHg 89%
    07:00 +12°C° 0 mm 2 mps 731 mmHg 86%
    08:00 +14°C° 0 mm 2 mps 731 mmHg 77%
    09:00 +15°C° 0 mm 2 mps 731 mmHg 68%
    10:00 +17°C° 0 mm 2 mps 732 mmHg 58%
    11:00 +17°C° 0 mm 2 mps 732 mmHg 56%
    12:00 +18°C° 0 mm 2 mps 731 mmHg 54%
    13:00 +19°C° 0 mm 1 mps 731 mmHg 52%
    14:00 +18°C° 0 mm 2 mps 731 mmHg 53%
    15:00 +18°C° 0 mm 2 mps 731 mmHg 54%
    16:00 +18°C° 0 mm 2 mps 731 mmHg 56%
    17:00 +17°C° 0 mm 2 mps 731 mmHg 63%
    18:00 +17°C° 0 mm 2 mps 731 mmHg 69%
    19:00 +16°C° 0 mm 2 mps 731 mmHg 76%
    20:00 +15°C° 0 mm 2 mps 731 mmHg 80%
    21:00 +14°C° 0 mm 2 mps 731 mmHg 83%
    22:00 +13°C° 0 mm 2 mps 732 mmHg 87%
    23:00 +12°C° 0 mm 2 mps 732 mmHg 88%

    9 June, Tuesday

    Time Temperature Precipitation Wind Pressure Humidity
    00:00 +12°C° 0 mm 2 mps 732 mmHg 89%
    01:00 +10°C° 0 mm 2 mps 732 mmHg 90%
    02:00 +11°C° 0 mm 1 mps 732 mmHg 91%
    03:00 +10°C° 0 mm 1 mps 732 mmHg 92%
    04:00 +10°C° 0 mm 1 mps 731 mmHg 92%
    05:00 +10°C° 0 mm 2 mps 732 mmHg 87%
    06:00 +13°C° 0 mm 2 mps 732 mmHg 82%
    07:00 +14°C° 0 mm 2 mps 733 mmHg 77%
    08:00 +15°C° 0 mm 2 mps 733 mmHg 74%
    09:00 +16°C° 0 mm 3 mps 733 mmHg 71%
    10:00 +17°C° 0 mm 3 mps 733 mmHg 68%
    11:00 +18°C° 0.3 mm 3 mps 733 mmHg 70%
    12:00 +18°C° 0.3 mm 3 mps 733 mmHg 71%
    13:00 +18°C° 0.3 mm 3 mps 733 mmHg 73%
    14:00 +18°C° 0.4 mm 3 mps 733 mmHg 75%
    15:00 +17°C° 0.4 mm 3 mps 733 mmHg 76%
    16:00 +17°C° 0.4 mm 3 mps 732 mmHg 78%
    17:00 +17°C° 0.4 mm 3 mps 733 mmHg 81%
    18:00 +16°C° 0.4 mm 3 mps 733 mmHg 84%
    19:00 +15°C° 0.4 mm 2 mps 733 mmHg 87%
    20:00 +15°C° 0.1 mm 2 mps 733 mmHg 89%
    21:00 +14°C° 0.1 mm 2 mps 733 mmHg 90%
    22:00 +13°C° 0.1 mm 2 mps 734 mmHg 91%
    23:00 +12°C° 0 mm 2 mps 733 mmHg 92%
    Show more